Location: ??????
(30.5519°N, 47.7720°E)
Time: 17:08:58
(UTC+00:00)

USA 267 - Pass Details

Date: 24 January 2021
Orbit: 1099 x 1108 km, 123.0° (Epoch: 02 March)

Event Time Altitude Azimuth Distance (km) Brightness Sun altitude
Exits shadow 15:07:12 13° 66° (ENE) 2,735 4.7 -10.8°
Maximum altitude 15:12:15 33° 125° (SE) 1,769 4.0 -11.9°
Drops below altitude 10° 15:17:58 10° 186° (S) 2,951 5.8 -13.0°
Sets 15:20:44 0° 196° (SSW) 3,907 6.6 -13.6°
